Weather History for K9A4 - April, 2013

Change the Weather History Date:

Thursday, April 11, 2013

  Actual Average (KMSL) Record (KMSL)
Temperature  
Mean Temperature 62 °F 60 °F  
Max Temperature 73 °F 72 °F 88 °F (1906)
Min Temperature 51 °F 48 °F 27 °F (1989)
Degree Days  
Heating Degree Days 3 6  
Month to date heating degree days 81  
Since 1 July heating degree days 2994  
Cooling Degree Days 0 1  
Month to date cooling degree days 11  
Year to date cooling degree days 24  
Growing Degree Days 12 (Base 50)    
Moisture  
Dew Point 59 °F    
Average Humidity 83    
Maximum Humidity 100    
Minimum Humidity 53    
Precipitation  
Precipitation 0.00 in 0.15 in 1.93 in (1995)
Month to date precipitation 1.63  
Year to date precipitation 15.66  
Snow  
Snow 0.00 in - - ()
Month to date snowfall  
Since 1 July snowfall  
Snow Depth -    
Sea Level Pressure  
Sea Level Pressure 29.75 in    
Wind  
Wind Speed 10 mph (SSW)    
Max Wind Speed 21 mph    
Max Gust Speed 29 mph    
Visibility 8 miles    
Events Rain    
T = Trace of Precipitation, MM = Missing Value Source: NWS Daily Summary

Daily Weather History Graph

Daily Weather History Graph

Search for Another Location

Airport or City:

Trip Planner

Search our weather history database for the weather conditions in past years. The results will help you decide how hot, cold, wet, or windy it might be!

Date:

Astronomy

Apr. 11, 2013 Rise Set
Actual Time 6:22 AM CDT 7:18 PM CDT
Civil Twilight 5:56 AM CDT 7:44 PM CDT
Nautical Twilight 5:26 AM CDT 8:14 PM CDT
Astronomical Twilight 4:55 AM CDT 8:46 PM CDT
Moon 6:57 AM CDT (4/11) 8:47 PM CDT (4/11)
Length of Visible Light 13h 47m
Length of Day
12h 55m
New Moon, 2% of the Moon is Illuminated
Apr 11
New Moon
Apr 18
First Quarter
Apr 25
Full
May 2
Last Quarter
May 9
New

Hourly Weather History & Observations

Time (CDT) Temp. Dew Point Humidity Pressure Visibility Wind Dir Wind Speed Gust Speed Precip Events Conditions
12:15 AM 71.6 °F 53.6 °F 53% 29.85 in 10.0 mi South 6.9 mph - N/A   Scattered Clouds
12:35 AM 71.6 °F 55.4 °F 57% 29.85 in 10.0 mi South 9.2 mph 16.1 mph N/A   Clear
12:55 AM 71.6 °F 57.2 °F 60% 29.85 in 10.0 mi South 13.8 mph 17.3 mph N/A   Clear
1:15 AM 71.6 °F 57.2 °F 60% 29.85 in 10.0 mi South 12.7 mph 20.7 mph N/A   Clear
1:35 AM 71.6 °F 57.2 °F 60% 29.83 in 10.0 mi South 9.2 mph - N/A   Clear
1:55 AM 69.8 °F 59.0 °F 68% 29.83 in 10.0 mi South 9.2 mph - N/A   Clear
2:15 AM 69.8 °F 59.0 °F 68% 29.82 in 10.0 mi South 9.2 mph 16.1 mph N/A   Clear
2:35 AM 69.8 °F 59.0 °F 68% 29.83 in 10.0 mi South 8.1 mph - N/A   Clear
2:55 AM 69.8 °F 57.2 °F 64% 29.82 in 10.0 mi South 10.4 mph - N/A   Clear
3:15 AM 69.8 °F 57.2 °F 64% 29.82 in 10.0 mi South 9.2 mph - N/A   Clear
3:35 AM 68.0 °F 57.2 °F 68% 29.83 in 10.0 mi SSW 8.1 mph - N/A   Clear
3:55 AM 68.0 °F 57.2 °F 68% 29.83 in 10.0 mi South 6.9 mph - N/A   Clear
4:15 AM 68.0 °F 57.2 °F 68% 29.83 in 10.0 mi South 8.1 mph - N/A   Clear
4:35 AM 68.0 °F 57.2 °F 68% 29.83 in 10.0 mi South 9.2 mph - N/A   Scattered Clouds
4:55 AM 68.0 °F 59.0 °F 73% 29.82 in 10.0 mi South 9.2 mph - N/A   Mostly Cloudy
5:15 AM 68.0 °F 59.0 °F 73% 29.81 in 10.0 mi South 8.1 mph - N/A   Mostly Cloudy
5:35 AM 66.2 °F 59.0 °F 78% 29.81 in 10.0 mi South 9.2 mph - N/A   Scattered Clouds
5:55 AM 66.2 °F 59.0 °F 78% 29.82 in 10.0 mi South 8.1 mph - N/A   Mostly Cloudy
6:15 AM 66.2 °F 59.0 °F 78% 29.81 in 10.0 mi South 8.1 mph - N/A   Scattered Clouds
6:35 AM 66.2 °F 59.0 °F 78% 29.81 in 10.0 mi SSE 4.6 mph - N/A   Scattered Clouds
6:55 AM 66.2 °F 60.8 °F 83% 29.81 in 10.0 mi SSE 5.8 mph - N/A   Mostly Cloudy
7:15 AM 66.2 °F 60.8 °F 83% 29.81 in 10.0 mi SSE 3.5 mph - N/A   Overcast
7:35 AM 66.2 °F 60.8 °F 83% 29.80 in 10.0 mi SSE 8.1 mph - N/A   Scattered Clouds
7:55 AM 66.2 °F 60.8 °F 83% 29.80 in 10.0 mi SSE 8.1 mph - N/A   Scattered Clouds
8:35 AM 68.0 °F 60.8 °F 78% 29.80 in 10.0 mi South 9.2 mph - N/A   Mostly Cloudy
8:55 AM 68.0 °F 60.8 °F 78% 29.80 in 10.0 mi South 12.7 mph 19.6 mph N/A   Mostly Cloudy
9:15 AM 69.8 °F 60.8 °F 73% 29.79 in 10.0 mi South 12.7 mph 24.2 mph N/A   Mostly Cloudy
9:35 AM 69.8 °F 60.8 °F 73% 29.79 in 10.0 mi South 12.7 mph 25.3 mph N/A   Overcast
9:55 AM 69.8 °F 60.8 °F 73% 29.78 in 10.0 mi South 15.0 mph 24.2 mph N/A   Overcast
10:15 AM 69.8 °F 60.8 °F 73% 29.77 in 10.0 mi South 17.3 mph 26.5 mph N/A   Mostly Cloudy
10:35 AM 71.6 °F 62.6 °F 73% 29.78 in 10.0 mi South 19.6 mph 27.6 mph N/A   Mostly Cloudy
10:55 AM 71.6 °F 60.8 °F 69% 29.77 in 10.0 mi South 17.3 mph 24.2 mph N/A   Overcast
11:15 AM 73.4 °F 62.6 °F 69% 29.75 in 10.0 mi South 18.4 mph 23.0 mph N/A   Overcast
11:35 AM 73.4 °F 60.8 °F 65% 29.74 in 10.0 mi South 15.0 mph 24.2 mph N/A   Overcast
11:55 AM 73.4 °F 62.6 °F 69% 29.72 in 10.0 mi South 17.3 mph 23.0 mph N/A   Overcast
12:15 PM 73.4 °F 62.6 °F 69% 29.72 in 10.0 mi South 20.7 mph 27.6 mph N/A   Overcast
12:35 PM 73.4 °F 62.6 °F 69% 29.70 in 10.0 mi South 16.1 mph 23.0 mph N/A   Overcast
12:55 PM 73.4 °F 62.6 °F 69% 29.69 in 10.0 mi South 16.1 mph 23.0 mph N/A   Overcast
1:15 PM 71.6 °F 62.6 °F 73% 29.68 in 10.0 mi South 18.4 mph 28.8 mph N/A Rain Light Rain
1:35 PM 71.6 °F 62.6 °F 73% 29.68 in 10.0 mi South 17.3 mph 26.5 mph N/A   Overcast
1:55 PM 71.6 °F 62.6 °F 73% 29.66 in 10.0 mi South 10.4 mph - N/A   Mostly Cloudy
2:15 PM 69.8 °F 62.6 °F 78% 29.67 in 10.0 mi South 11.5 mph 16.1 mph N/A Rain Light Rain
2:35 PM 62.6 °F 59.0 °F 88% 29.71 in 4.0 mi WNW 17.3 mph 23.0 mph N/A Rain Heavy Rain
2:55 PM 60.8 °F 60.8 °F 100% 29.68 in 0.8 mi North 9.2 mph 15.0 mph N/A Rain Heavy Rain
3:15 PM 60.8 °F 60.8 °F 100% 29.70 in 1.5 mi WNW 5.8 mph - N/A Rain Heavy Rain
3:35 PM 60.8 °F 60.8 °F 100% 29.72 in 2.5 mi West 8.1 mph - N/A Rain Heavy Rain
3:55 PM 60.8 °F 60.8 °F 100% 29.73 in 3.0 mi WNW 6.9 mph - N/A Rain Heavy Rain
4:15 PM 60.8 °F 60.8 °F 100% 29.71 in 4.0 mi NNW 9.2 mph - N/A Rain Heavy Rain
4:35 PM 60.8 °F 60.8 °F 100% 29.68 in 5.0 mi NE 4.6 mph - N/A Rain Rain
4:55 PM 60.8 °F 60.8 °F 100% 29.65 in 5.0 mi East 5.8 mph - N/A Rain Rain
5:15 PM 60.8 °F 60.8 °F 100% 29.65 in 4.0 mi East 4.6 mph - N/A Rain Heavy Rain
5:35 PM 60.8 °F 60.8 °F 100% 29.64 in 7.0 mi ESE 5.8 mph - N/A Rain Light Rain
5:55 PM 60.8 °F 60.8 °F 100% 29.62 in 10.0 mi East 5.8 mph - N/A   Light Drizzle
6:15 PM 60.8 °F 60.8 °F 100% 29.62 in 10.0 mi ESE 10.4 mph - N/A   Overcast
6:35 PM 60.8 °F 60.8 °F 100% 29.61 in 5.0 mi ESE 17.3 mph - N/A Rain Rain
6:55 PM 60.8 °F 60.8 °F 100% 29.63 in 7.0 mi Calm Calm - N/A Rain Rain
7:15 PM 60.8 °F 60.8 °F 100% 29.63 in 10.0 mi SE 4.6 mph - N/A   Light Drizzle
7:35 PM 60.8 °F 60.8 °F 100% 29.64 in 10.0 mi West 6.9 mph - N/A   Drizzle
7:55 PM 60.8 °F 60.8 °F 100% 29.66 in 7.0 mi WSW 4.6 mph - N/A   Drizzle
8:15 PM 60.8 °F 60.8 °F 100% 29.66 in 4.0 mi WNW 4.6 mph - N/A   Heavy Drizzle
8:35 PM 60.8 °F 60.8 °F 100% 29.67 in 3.0 mi WNW 6.9 mph - N/A   Drizzle
8:55 PM 59.0 °F 59.0 °F 100% 29.68 in 3.0 mi WNW 19.6 mph 25.3 mph N/A Rain Heavy Rain
9:15 PM 55.4 °F 55.4 °F 100% 29.67 in 5.0 mi WNW 16.1 mph 23.0 mph N/A   Light Drizzle
9:35 PM 55.4 °F 55.4 °F 100% 29.68 in 10.0 mi WNW 15.0 mph 20.7 mph N/A   Overcast
9:55 PM 53.6 °F 53.6 °F 100% 29.70 in 10.0 mi NW 11.5 mph - N/A   Overcast
10:15 PM 53.6 °F 53.6 °F 100% 29.72 in 10.0 mi WNW 12.7 mph 16.1 mph N/A   Overcast
10:35 PM 53.6 °F 51.8 °F 94% 29.74 in 10.0 mi WNW 15.0 mph 20.7 mph N/A   Overcast
10:55 PM 51.8 °F 51.8 °F 100% 29.76 in 10.0 mi WNW 17.3 mph 25.3 mph N/A   Overcast
11:15 PM 51.8 °F 51.8 °F 100% 29.76 in 10.0 mi WNW 12.7 mph - N/A   Overcast
11:35 PM 51.8 °F 51.8 °F 100% 29.76 in 10.0 mi WNW 13.8 mph 17.3 mph N/A   Overcast
11:55 PM 51.8 °F 51.8 °F 100% 29.76 in 5.0 mi WNW 11.5 mph 19.6 mph N/A   Overcast